Regional Weather Roundup
Issued by NWS

Home | Current Version | Previous Version | Graphics & Text | Print | Product List | Glossary On
Versions: 1 2 3 4 5 6 7 8 9 10 11 12 13 14 15 16 17 18 19 20 21 22 23 24 25 26 27 28 29 30 31 32 33 34 35 36 37 38 39 40 41 42 43 44 45 46 47 48 49 50
000
ASUS43 KIND 271009
RWRIN

WEATHER ROUNDUP FOR INDIANA
NATIONAL WEATHER SERVICE INDIANAPOLIS IN
500 AM EST THU NOV 27 2014

NOTE: "FAIR" INDICATES FEW OR NO CLOUDS BELOW 12,000 FEET WITH NO
SIGNIFICANT WEATHER AND/OR OBSTRUCTIONS TO VISIBILITY.

* - STATION DOES NOT REPORT WEATHER SUCH AS PRECIPITATION OR FOG.

+ - STATION NOT QUALITY CONTROLLED BY THE NATIONAL WEATHER SERVICE.
    USE DATA WITH CAUTION...ESPECIALLY DEWPOINT AND RELATIVE
    HUMIDITY OBSERVATIONS.

INZ001>003-010>013-019-020-271100-
NORTHWEST INDIANA

CITY           SKY/WX    TMP DP  RH WIND       PRES   REMARKS
KNOX *+        CLOUDY    28  25  87 W7        30.18S WCI  21
LA PORTE +     LGT SNOW  30  28  92 CALM      30.19R
MICHIGAN CITY+ FLURRIES  32  25  74 NW13G18   30.19S WCI  22
MONTICELLO +   CLOUDY    27  24  88 NW6       30.20R WCI  20
RENSSELAER +   MIX PCPN  30  28  93 W7        30.21S WCI  23
VALPARAISO     LGT SNOW  28  25  88 W12       30.20R FOG     WCI  18

$$

LMZ046-743>745-271100-
SOUTHERN LAKE MICHIGAN

STATION/POSITION TIME  TEMP WIND        PRES
                       AIR  DIR/SP/G
                 (UTC) (F)  (DEG/KT/KT) (MB)
MICHIGAN CITY    1000   32  300/ 22/ 25   N/A

$$

INZ004-005-014>016-021>024-271100-
NORTH CENTRAL INDIANA

CITY           SKY/WX    TMP DP  RH WIND       PRES   REMARKS
GOSHEN         CLOUDY    27  22  81 W5        30.16R WCI  22
LOGANSPORT +   CLOUDY    27  21  80 NW5       30.20R WCI  21
PERU/GRISSOM   CLOUDY    26  25  93 NW9       30.18R WCI  17
ROCHESTER +    CLOUDY    30  25  80 W7        30.19R WCI  23
SOUTH BEND     FLURRIES  28  23  81 W7        30.18R WCI  21
WARSAW +       CLOUDY    28  23  80 NW5       30.16S WCI  23

$$

INZ006>009-017-018-025>027-271100-
NORTHEAST INDIANA

CITY           SKY/WX    TMP DP  RH WIND       PRES   REMARKS
ANGOLA *+      CLOUDY    27  16  63 NW6       30.13R WCI  20
AUBURN +       CLOUDY    30  23  74 NW6       30.15R WCI  24
FORT WAYNE     CLOUDY    28  23  81 NW5       30.15R WCI  23
HUNTINGTON +   CLOUDY    27  23  84 NW7       30.15S WCI  20

$$

INZ028-029-035-036-043>045-051>053-271100-
WEST CENTRAL INDIANA

CITY           SKY/WX    TMP DP  RH WIND       PRES   REMARKS
GREENCASTLE +  PTCLDY    27  21  80 NW7       30.21R WCI  19
LAFAYETTE      CLOUDY    25  21  85 NW6       30.22R WCI  18
TERRE HAUTE    CLEAR     27  20  75 NW7       30.24R WCI  19

$$

INZ030>032-037>040-046>048-054>057-064-065-271100-
CENTRAL INDIANA

CITY           SKY/WX    TMP DP  RH WIND       PRES   REMARKS
CP ATTERBURY + CLOUDY    30  23  74 NW8       30.18R WCI  23
FRANKFORT +    CLOUDY    25  22  88 W8        30.21R WCI  16
INDIANAPOLIS   CLOUDY    27  19  72 N12       30.18R WCI  17
-EAGLE CREEK   MOCLDY    27  19  72 N9        30.18R WCI  18
KOKOMO *+      CLOUDY    27  19  74 NW12      30.18R WCI  16
MARION +         N/A     27  22  80 NW7       30.16S WCI  19
MT COMFORT *+  CLOUDY    28  16  59 NW9       30.18R WCI  20
SHELBYVILLE    CLOUDY    30  21  69 N13       30.17R WCI  20
ZIONSVILLE +   FAIR      26  20  77 NW8       30.18R WCI  18

$$

INZ033-034-041-042-049-050-058-059-271100-
EAST CENTRAL INDIANA

CITY           SKY/WX    TMP DP  RH WIND       PRES   REMARKS
MUNCIE         CLOUDY    28  22  78 NW10      30.14R WCI  19

$$

INZ060-061-067>069-081>083-085>088-271100-
SOUTHWEST INDIANA

CITY           SKY/WX    TMP DP  RH WIND       PRES   REMARKS
EVANSVILLE     CLOUDY    32  28  85 NW6       30.24R WCI  26
HUNTINGBURG *+ MOCLDY    30  27  86 N8        30.21R WCI  23
WASHINGTON +   CLOUDY    30  27  91 N10       30.23R WCI  21

$$

INZ062-063-066-070>080-084-089>092-271100-
SOUTH CENTRAL AND SOUTHEAST INDIANA

CITY           SKY/WX    TMP DP  RH WIND       PRES   REMARKS
BLOOMINGTON    CLOUDY    28  22  78 N9G18     30.19R WCI  19

$$



USA.gov is the U.S. government's official web portal to all federal, state and local government web resources and services.